Погода в Краснохолме

Россия / Оренбургская область     51°35′38″N   54°09′29″E
темп.,
°C
ветер,
м/с
пор.,
м/с
влажн.,
%
обл.,
%
осадки,
мм/ч
давл.,
гПа
погр.,
м
20 апреля, вт
вт2023:00+4вюв61263100 0.0 10251011
02:00+3в81449100 0.0 1027820
05:00+1в81349100 0.0 1028633
08:00+1в813498 0.0 1030668
11:00+5в810360 0.0 10301058
14:00+8вюв910300 0.0 10291286
17:00+9вюв810291 0.0 10281373
20:00+7вюв5941100 0.0 1029314
21 апреля, ср
ср2123:00+4вюв61346100 0.0 1030433
02:00+3вюв6135094 0.0 1030403
05:00+2вюв6145238 0.0 1031400
08:00+2юв6135093 0.0 1031595
11:00+7юв8113542 0.0 1030907
14:00+10юв81029100 0.0 10291200
17:00+12ююв81029100 0.0 10281447
20:00+10юв51039100 0.0 1028345
22 апреля, чт
чт2223:00+9юв71344100 0.1 1028600
02:00+8ююв61348100 0.0 1029600
05:00+7ююв61252100 0.1 1029565
08:00+5ююв61265100 0.2 1030768
11:00+5юв5974100 0.8 1031509
14:00+8юв61257100 0.1 1030636
17:00+5ююв61183100 1.1 1031625
20:00+5вюв5986100 3.7 1030776
23 апреля, пт
пт2323:00+6юв51190100 7.1 1030901
02:00+6в4889100 1.1 1028234
05:00+5всв4886100 1.1 1027194
08:00+7в3878100 0.0 1027242
11:00+12в4553100 0.0 1025546
14:00+14юв4646100 0.0 10241223
17:00+10ююз6976100 0.0 1024612
20:00+7ююв5788100 3.9 10251037
24 апреля, сб
сб2423:00+7вюв5988100 5.3 10221107
02:00+7вюв5892100 1.8 1019437
05:00+7всв5894100 3.9 1017317
08:00+7св71288100 1.6 1014475
11:00+9всв7876100 2.6 10111008
14:00+10с6765100 0.4 1010729
17:00+8сз6776100 0.8 1011940
20:00+8зсз6987100 0.2 1012590